Location: Asheville, NC
(35.6000°N, 82.5500°W)
Time: 06:17:11
(UTC-04:00)

nSIGHT-1 - Visible Passes

Search period start: 22 July 2018 00:00
Search period end: 01 August 2018 00:00
Orbit: 378 x 385 km, 51.6° (Epoch: 21 July)

Date Brightness Start Highest point End Pass type
(mag) Time Alt. Az. Time Alt. Az. Time Alt. Az.
23 Jul ? 21:14:31 10° WNW 21:16:08 13° NNW 21:17:45 10° N visible
29 Jul ? 23:19:58 10° N 23:20:45 13° N 23:20:45 13° N visible
31 Jul ? 22:56:07 10° NNW 22:57:41 19° N 22:57:41 19° N visible
